Regional Weather Roundup
Issued by NWS

Home | Current Version | Previous Version | Graphics & Text | Print | Product List | Glossary Off
Versions: 1 2 3 4 5 6 7 8 9 10 11 12 13 14 15 16 17 18 19 20 21 22 23 24 25 26 27 28 29 30 31 32 33 34 35 36 37 38 39 40 41 42 43 44 45 46 47 48 49 50

000
ASUS43 KBIS 191810
RWRND

NORTH DAKOTA REGIONAL WEATHER ROUNDUP
NATIONAL WEATHER SERVICE BISMARCK ND
100 PM CDT SAT AUG 19 2017

NOTE: "FAIR" INDICATES FEW OR NO CLOUDS BELOW 12,000 FEET WITH NO
SIGNIFICANT WEATHER AND/OR OBSTRUCTIONS TO VISIBILITY.


NDZ001>003-009>011-017-191900-
NORTHWEST NORTH DAKOTA

CITY           SKY/WX    TMP DP  RH WIND       PRES   REMARKS
WILLISTON      PTSUNNY   81  49  32 W15       29.75R
6HR MIN TEMP:  59; 6HR MAX TEMP:  84;

MINOT          SUNNY     82  59  45 S12       29.69F
MINOT AFB      SUNNY     83  57  39 S10       29.67F
$$

NDZ018>021-031>035-040>046-191900-
SOUTHWEST NORTH DAKOTA

CITY           SKY/WX    TMP DP  RH WIND       PRES   REMARKS
BISMARCK       SUNNY     82  61  48 S13       29.77F
6HR MIN TEMP:  57; 6HR MAX TEMP:  82;

DICKINSON      MOSUNNY   83  49  30 W16       29.79R
GARRISON         N/A     80  58  46 S12       29.72F
6HR MIN TEMP:  58; 6HR MAX TEMP:  80;

HETTINGER ARPT SUNNY     86  47  25 W12       29.82F
$$

NDZ004>008-012>016-024-026-027-054-191900-
NORTHEAST NORTH DAKOTA

CITY           SKY/WX    TMP DP  RH WIND       PRES   REMARKS
GRAND FORKS    MOSUNNY   85  62  46 S14       29.78F
GRND FRKS AFB  SUNNY     84  61  46 SW13G18   29.79F
DEVILS LAKE    SUNNY     82  55  39 S23       29.76F
$$

NDZ022-023-025-028>030-036>039-047>053-191900-
SOUTHEAST NORTH DAKOTA

CITY           SKY/WX    TMP DP  RH WIND       PRES   REMARKS
FARGO          SUNNY     80  63  55 S14       29.83F
6HR MIN TEMP:  59; 6HR MAX TEMP:  80;

JAMESTOWN      SUNNY     79  60  52 S18G25    29.81F
$$




USA.gov is the U.S. government's official web portal to all federal, state and local government web resources and services.